Location: Dillon
(41.1766°N, 107.0923°W)
Time: 10:14:57
(UTC+00:00)

AO-92 - Pass Details

Date: 05 July 2022
Orbit: 469 x 481 km, 97.4° (Epoch: 09 August)

Event Time Altitude Azimuth Distance (km) Brightness Sun altitude
Exits shadow 05:20:42 71° 225° (SW) 512 ? -20.9°
Maximum altitude 05:20:54 74° 258° (WSW) 504 ? -21.0°
Drops below altitude 10° 05:24:29 10° 344° (NNW) 1,668 ? -21.3°
Sets 05:26:34 0° 347° (NNW) 2,555 ? -21.4°
